FW1715 Weather Reports


time (UTC)temp
C
wind
direction
speed
KPH
gust
KPH
rain 1hr
cm
rain 24hr
cm
rain mn
cm
humidity
%
barometer
mb
20260507164206 18 270 1.6 6.4 0.00 0.00 0.00 73 1015.9
20260507163700 18 276 3.2 6.4 0.00 0.00 0.00 75 1016.1
20260507162142 18 196 1.6 6.4 0.00 0.00 0.00 75 1016.0
20260507161636 17 195 1.6 6.4 0.00 0.00 0.00 77 1016.1
20260507161131 17 208 3.2 9.7 0.00 0.00 0.00 76 1016.0
20260507160624 17 186 3.2 9.7 0.00 0.00 0.00 78 1016.1
20260507160119 17 168 3.2 8.0 0.00 0.00 0.00 78 1016.0
20260507155615 17 184 1.6 8.0 0.00 0.00 0.00 79 1016.0
20260507154117 16 200 0.0 4.8 0.00 0.00 0.00 82 1016.3
20260507153615 16 244 0.0 0.0 0.00 0.00 0.00 81 1016.3
20260507153116 16 244 0.0 0.0 0.00 0.00 0.00 81 1016.3
20260507152613 16 243 0.0 0.0 0.00 0.00 0.00 80 1016.4
20260507152114 16 243 0.0 0.0 0.00 0.00 0.00 80 1016.4
20260507151614 16 243 0.0 3.2 0.00 0.00 0.00 80 1016.3
20260507151113 16 243 0.0 3.2 0.00 0.00 0.00 79 1016.4
20260507150614 17 242 0.0 3.2 0.00 0.00 0.00 77 1016.4
20260507150110 17 242 1.6 4.8 0.00 0.00 0.00 76 1016.4
20260507145113 18 194 0.0 0.0 0.00 0.00 0.00 73 1016.3
20260507144610 18 205 0.0 3.2 0.00 0.00 0.00 76 1016.2
20260507144110 17 205 0.0 3.2 0.00 0.00 0.00 79 1016.1
20260507143110 16 207 0.0 3.2 0.00 0.00 0.00 84 1016.1
20260507142608 15 207 0.0 3.2 0.00 0.00 0.00 87 1016.1
20260507141108 13 205 0.0 0.0 0.00 0.00 0.00 88 1015.8
20260507140107 13 205 0.0 0.0 0.00 0.00 0.00 89 1015.8
20260507135608 13 205 0.0 0.0 0.00 0.00 0.00 90 1015.7
20260507135107 13 205 0.0 0.0 0.00 0.00 0.00 91 1015.7
20260507134606 12 205 0.0 0.0 0.00 0.00 0.00 91 1015.7
20260507133606 12 205 0.0 3.2 0.00 0.00 0.00 91 1015.5
20260507133108 12 290 0.0 3.2 0.00 0.00 0.00 90 1015.4
20260507132603 12 283 0.0 3.2 0.00 0.00 0.00 91 1015.3
20260507132104 12 283 0.0 4.8 0.00 0.00 0.00 91 1015.3
20260507131604 12 283 0.0 4.8 0.00 0.00 0.00 91 1015.3
20260507131104 12 283 0.0 0.0 0.00 0.00 0.00 91 1015.4
20260507125601 12 336 0.0 0.0 0.00 0.00 0.00 91 1015.5
20260507125100 12 336 0.0 0.0 0.00 0.00 0.00 92 1015.4
20260507124059 12 336 0.0 0.0 0.00 0.00 0.00 91 1015.3
20260507123557 12 336 0.0 0.0 0.00 0.00 0.00 91 1015.3
20260507123057 12 336 0.0 0.0 0.00 0.00 0.00 91 1015.2
20260507122556 12 336 0.0 0.0 0.00 0.00 0.00 91 1015.2
20260507122059 12 336 0.0 0.0 0.00 0.00 0.00 91 1015.2
20260507121557 12 336 0.0 0.0 0.00 0.00 0.00 91 1015.1
20260507121056 12 336 0.0 0.0 0.00 0.00 0.00 91 1015.1
20260507120557 12 327 0.0 0.0 0.00 0.00 0.00 91 1015.2
20260507120056 12 300 0.0 0.0 0.00 0.00 0.00 91 1015.3
20260507115549 12 300 0.0 0.0 0.00 0.00 0.00 90 1015.2
20260507115048 12 300 0.0 0.0 0.00 0.00 0.00 90 1015.3
20260507114544 12 300 0.0 0.0 0.00 0.00 0.00 91 1015.3
20260507114044 12 300 0.0 0.0 0.00 0.00 0.00 90 1015.3
20260507113544 12 300 0.0 0.0 0.00 0.00 0.00 90 1015.3
20260507113044 12 300 0.0 0.0 0.00 0.00 0.00 90 1015.3
20260507112544 12 300 0.0 0.0 0.00 0.00 0.00 90 1015.4
20260507112043 12 300 0.0 0.0 0.00 0.00 0.00 90 1015.5
20260507111044 12 300 0.0 0.0 0.00 0.00 0.00 90 1015.5
20260507110540 12 300 0.0 0.0 0.00 0.00 0.00 90 1015.5
20260507110038 12 300 0.0 0.0 0.00 0.00 0.00 90 1015.6
20260507105540 12 300 0.0 0.0 0.00 0.00 0.00 91 1015.6
20260507105040 12 300 0.0 0.0 0.00 0.00 0.00 91 1015.5
20260507104539 12 300 0.0 0.0 0.00 0.00 0.00 91 1015.6
20260507104040 12 300 0.0 0.0 0.00 0.00 0.00 91 1015.6
20260507103538 12 300 0.0 0.0 0.00 0.00 0.00 91 1015.5
20260507103039 12 300 0.0 0.0 0.00 0.00 0.00 91 1015.6
20260507102540 12 300 0.0 0.0 0.00 0.00 0.00 91 1015.6
20260507101539 12 300 0.0 0.0 0.00 0.00 0.00 91 1015.5
20260507101040 13 300 0.0 0.0 0.00 0.00 0.00 91 1015.6
20260507100540 13 300 0.0 0.0 0.00 0.00 0.00 92 1015.6
20260507100038 13 300 0.0 0.0 0.00 0.00 0.00 92 1015.6
20260507095038 13 300 0.0 0.0 0.00 0.00 0.00 92 1015.6
20260507094540 13 300 0.0 0.0 0.00 0.00 0.00 92 1015.7
20260507093540 13 300 0.0 0.0 0.00 0.00 0.00 91 1015.8
20260507093038 13 300 0.0 0.0 0.00 0.00 0.00 91 1015.9
20260507092539 13 300 0.0 0.0 0.00 0.00 0.00 91 1015.9
20260507091038 13 300 0.0 0.0 0.00 0.00 0.00 90 1016.2
20260507090540 13 300 0.0 0.0 0.00 0.00 0.00 90 1016.2
20260507090040 13 300 0.0 0.0 0.00 0.00 0.00 89 1016.3
20260507085539 13 300 0.0 0.0 0.00 0.00 0.00 89 1016.4
20260507085031 13 300 0.0 0.0 0.00 0.00 0.00 89 1016.4
20260507084525 13 300 0.0 0.0 0.00 0.00 0.00 89 1016.5
20260507084024 13 300 0.0 0.0 0.00 0.00 0.00 89 1016.5
20260507083520 13 300 0.0 0.0 0.00 0.00 0.00 89 1016.5
20260507083016 13 300 0.0 0.0 0.00 0.00 0.00 89 1016.7
20260507082517 13 300 0.0 0.0 0.00 0.00 0.00 88 1016.6
20260507082018 13 300 0.0 0.0 0.00 0.00 0.00 88 1016.7
20260507081514 13 300 0.0 0.0 0.00 0.00 0.00 89 1016.8
20260507081013 13 300 0.0 0.0 0.00 0.00 0.00 88 1016.8
20260507080513 13 300 0.0 0.0 0.00 0.00 0.00 88 1016.7
20260507075509 14 300 0.0 0.0 0.00 0.00 0.00 88 1016.6
20260507075009 14 300 0.0 0.0 0.00 0.00 0.00 87 1016.6
20260507074509 14 300 0.0 0.0 0.00 0.00 0.00 87 1016.7
20260507074010 14 300 0.0 0.0 0.00 0.00 0.00 87 1016.7
20260507073507 14 300 0.0 0.0 0.00 0.00 0.00 87 1016.5
20260507073006 14 300 0.0 0.0 0.00 0.00 0.00 86 1016.4
20260507072507 14 300 0.0 0.0 0.00 0.00 0.00 86 1016.6
20260507072001 14 300 0.0 0.0 0.00 0.00 0.00 86 1016.6
20260507071459 14 300 0.0 0.0 0.00 0.00 0.00 85 1016.6
20260507070958 14 300 0.0 0.0 0.00 0.00 0.00 85 1016.6
20260507070458 14 300 0.0 0.0 0.00 0.00 0.00 85 1016.8
20260507065455 15 300 0.0 0.0 0.00 0.00 0.00 85 1016.8
20260507064952 15 300 0.0 0.0 0.00 0.00 0.00 85 1016.7
20260507064454 15 300 0.0 0.0 0.00 0.00 0.00 84 1016.8
20260507063950 15 300 0.0 0.0 0.00 0.00 0.00 84 1016.8
20260507063451 15 300 0.0 0.0 0.00 0.00 0.00 84 1016.8
20260507062951 15 300 0.0 0.0 0.00 0.00 0.00 84 1016.8
20260507062452 15 300 0.0 0.0 0.00 0.00 0.00 84 1016.9
20260507061949 15 300 0.0 0.0 0.00 0.00 0.00 84 1016.8
20260507061447 15 300 0.0 0.0 0.00 0.00 0.00 83 1016.9
20260507060946 15 300 0.0 0.0 0.00 0.00 0.00 83 1016.9
20260507055944 15 300 0.0 0.0 0.00 0.00 0.00 83 1016.9
20260507055445 15 300 0.0 0.0 0.00 0.00 0.00 82 1017.0
20260507054939 15 300 0.0 0.0 0.00 0.00 0.00 82 1016.9
20260507054437 15 300 0.0 0.0 0.00 0.00 0.00 82 1016.9
20260507053934 15 300 0.0 0.0 0.00 0.00 0.00 82 1016.9
20260507053433 15 300 0.0 0.0 0.00 0.00 0.00 81 1016.9
20260507052933 15 300 0.0 0.0 0.00 0.00 0.00 81 1017.0
20260507052434 15 300 0.0 0.0 0.00 0.00 0.00 81 1017.0
20260507051932 15 300 0.0 0.0 0.00 0.00 0.00 81 1016.9
20260507050428 15 300 0.0 0.0 0.00 0.00 0.00 80 1016.9
20260507045928 15 300 0.0 0.0 0.00 0.00 0.00 80 1016.9
20260507045427 15 300 0.0 0.0 0.00 0.00 0.00 80 1017.0
20260507044925 15 300 0.0 0.0 0.00 0.00 0.00 80 1016.9
20260507044426 16 300 0.0 0.0 0.00 0.00 0.00 79 1016.9
20260507043926 16 300 0.0 0.0 0.00 0.00 0.00 79 1017.0
20260507043425 16 299 0.0 0.0 0.00 0.00 0.00 79 1016.9
20260507042925 16 299 0.0 0.0 0.00 0.00 0.00 79 1016.9
20260507042423 16 299 0.0 0.0 0.00 0.00 0.00 79 1017.0
20260507041921 16 299 0.0 0.0 0.00 0.00 0.00 78 1017.0
20260507041419 16 299 0.0 3.2 0.00 0.00 0.00 78 1016.9
20260507040917 16 299 0.0 4.8 0.00 0.00 0.00 77 1016.9
20260507035418 16 288 0.0 4.8 0.00 0.00 0.00 77 1016.8
20260507034918 16 288 0.0 3.2 0.00 0.00 0.00 76 1016.8
20260507034419 16 288 0.0 3.2 0.00 0.00 0.00 77 1016.7
20260507033918 16 288 0.0 4.8 0.00 0.00 0.00 77 1016.6
20260507033414 16 288 0.0 4.8 0.00 0.00 0.00 76 1016.6
20260507032914 16 286 1.6 6.4 0.00 0.00 0.00 76 1016.6
20260507031915 17 290 3.2 11.3 0.00 0.00 0.00 76 1016.6
20260507031415 17 302 3.2 9.7 0.00 0.00 0.00 76 1016.5
20260507030914 17 287 1.6 9.7 0.00 0.00 0.00 76 1016.4
20260507030413 17 288 1.6 6.4 0.00 0.00 0.00 75 1016.3
20260507025914 17 284 3.2 6.4 0.00 0.00 0.00 75 1016.2
20260507025415 17 274 3.2 6.4 0.00 0.00 0.00 74 1016.1
20260507024911 17 284 3.2 8.0 0.00 0.00 0.00 74 1016.1
20260507024411 17 289 1.6 9.7 0.00 0.00 0.00 73 1016.1
20260507023911 17 268 3.2 9.7 0.00 0.00 0.00 72 1016.0
20260507023410 18 266 3.2 6.4 0.00 0.00 0.00 71 1016.0
20260507022909 18 252 3.2 12.9 0.00 0.00 0.00 71 1016.0
20260507022410 18 267 4.8 12.9 0.00 0.00 0.00 70 1015.9
20260507021911 18 279 4.8 12.9 0.00 0.00 0.00 69 1015.8
20260507021410 19 221 3.2 12.9 0.00 0.00 0.00 68 1015.8
20260507020911 19 234 3.2 12.9 0.00 0.00 0.00 67 1015.8
20260507020405 20 246 4.8 12.9 0.00 0.00 0.00 66 1015.6
20260507015406 21 220 6.4 14.5 0.00 0.00 0.00 63 1015.6
20260507014406 21 309 6.4 14.5 0.00 0.00 0.00 63 1015.5
20260507013907 21 268 6.4 14.5 0.00 0.00 0.00 62 1015.5
20260507012906 22 261 6.4 17.7 0.00 0.00 0.00 61 1015.4
20260507011907 22 234 8.0 17.7 0.00 0.00 0.00 60 1015.4
20260507011407 22 207 8.0 16.1 0.00 0.00 0.00 61 1015.4
20260507010906 22 235 8.0 16.1 0.00 0.00 0.00 60 1015.4
20260507005905 23 258 6.4 17.7 0.00 0.00 0.00 60 1015.5
20260507005406 23 274 8.0 17.7 0.00 0.00 0.00 60 1015.4
20260507004906 22 250 9.7 19.3 0.00 0.00 0.00 60 1015.4
20260507003904 23 234 9.7 17.7 0.00 0.00 0.00 60 1015.4
20260507002904 23 217 8.0 16.1 0.00 0.00 0.00 60 1015.5
20260507001901 23 244 9.7 19.3 0.00 0.00 0.00 59 1015.3
20260507000902 23 239 8.0 17.7 0.00 0.00 0.00 57 1015.2
20260506235903 23 240 6.4 20.9 0.00 0.00 0.00 56 1015.2
20260506235402 22 267 8.0 16.1 0.00 0.00 0.00 56 1015.3
20260506234903 22 252 8.0 19.3 0.00 0.00 0.00 56 1015.4
20260506234401 22 265 6.4 19.3 0.00 0.00 0.00 57 1015.4
20260506233858 22 280 6.4 16.1 0.00 0.00 0.00 54 1015.3
20260506233357 22 296 8.0 19.3 0.00 0.00 0.00 56 1015.3
20260506232857 22 292 9.7 20.9 0.00 0.00 0.00 54 1015.4
20260506232358 22 254 9.7 20.9 0.00 0.00 0.00 54 1015.4
20260506231855 22 238 9.7 16.1 0.00 0.00 0.00 53 1015.4
20260506231353 22 306 8.0 17.7 0.00 0.00 0.00 52 1015.4
20260506230353 23 257 9.7 20.9 0.00 0.00 0.00 53 1015.4
20260506225850 22 228 9.7 20.9 0.00 0.00 0.00 53 1015.5
20260506224848 22 230 6.4 16.1 0.00 0.00 0.00 56 1015.5
20260506224348 22 301 9.7 17.7 0.00 0.00 0.00 53 1015.7
20260506223846 22 270 9.7 17.7 0.00 0.00 0.00 53 1015.7
20260506223343 23 279 6.4 16.1 0.00 0.00 0.00 52 1015.8
20260506222841 23 251 6.4 16.1 0.00 0.00 0.00 54 1015.8
20260506222342 23 237 8.0 19.3 0.00 0.00 0.00 56 1015.9
20260506221841 22 250 8.0 19.3 0.00 0.00 0.00 56 1015.9
20260506221342 22 234 8.0 16.1 0.00 0.00 0.00 58 1015.9
20260506220835 22 240 9.7 17.7 0.00 0.00 0.00 57 1016.0
20260506215822 22 255 8.0 22.5 0.00 0.00 0.00 59 1016.1
20260506215316 22 281 8.0 17.7 0.00 0.00 0.00 59 1016.2
20260506214810 21 242 8.0 20.9 0.00 0.00 0.00 60 1016.1
20260506214303 22 285 8.0 20.9 0.00 0.00 0.00 59 1016.2
20260506213800 22 265 6.4 17.7 0.00 0.00 0.00 61 1016.3
20260506213252 21 274 6.4 14.5 0.00 0.00 0.00 62 1016.4
20260506212746 21 287 6.4 14.5 0.00 0.00 0.00 63 1016.4
20260506211734 22 281 8.0 19.3 0.00 0.00 0.00 62 1016.5
20260506210722 21 248 8.0 20.9 0.00 0.00 0.00 64 1016.5
20260506210216 21 261 8.0 20.9 0.00 0.00 0.00 64 1016.5
20260506204658 21 284 8.0 17.7 0.00 0.00 0.00 64 1016.6
20260506204152 22 317 8.0 19.3 0.00 0.00 0.00 63 1016.7
20260506203646 22 221 8.0 19.3 0.00 0.00 0.00 64 1016.7
20260506203140 21 294 6.4 17.7 0.00 0.00 0.00 65 1016.7
20260506202634 21 240 8.0 20.9 0.00 0.00 0.00 65 1016.8
20260506202128 21 275 6.4 20.9 0.00 0.00 0.00 64 1016.7
20260506201622 21 315 4.8 12.9 0.00 0.00 0.00 64 1016.8
20260506201116 21 286 6.4 14.5 0.00 0.00 0.00 63 1016.8
20260506200610 21 250 6.4 17.7 0.00 0.00 0.00 64 1016.8
20260506200104 21 229 4.8 17.7 0.00 0.00 0.00 65 1016.9
20260506195558 21 250 6.4 14.5 0.00 0.00 0.00 64 1017.0
20260506195052 21 278 6.4 17.7 0.00 0.00 0.00 63 1017.1
20260506194546 22 277 4.8 17.7 0.00 0.00 0.00 62 1017.1
20260506193534 21 225 8.0 16.1 0.00 0.00 0.00 64 1017.4
20260506193028 21 234 9.7 22.5 0.00 0.00 0.00 65 1017.3
20260506192522 21 227 9.7 22.5 0.00 0.00 0.00 65 1017.3
20260506191510 21 237 11.3 22.5 0.00 0.00 0.00 66 1017.3
20260506191004 21 246 9.7 22.5 0.00 0.00 0.00 65 1017.3
20260506190458 21 275 6.4 17.7 0.00 0.00 0.00 66 1017.4
20260506185952 21 244 6.4 17.7 0.00 0.00 0.00 64 1017.3
20260506185446 21 258 4.8 12.9 0.00 0.00 0.00 65 1017.5
20260506184940 21 226 3.2 11.3 0.00 0.00 0.00 63 1017.5
20260506183422 21 227 4.8 16.1 0.00 0.00 0.00 64 1017.5
20260506182916 21 230 6.4 16.1 0.00 0.00 0.00 65 1017.6
20260506182410 21 246 6.4 16.1 0.00 0.00 0.00 64 1017.6
20260506181904 21 279 4.8 16.1 0.00 0.00 0.00 65 1017.7
20260506181358 20 219 3.2 16.1 0.00 0.00 0.00 66 1017.7
20260506180852 20 232 1.6 11.3 0.00 0.00 0.00 64 1017.8
20260506180346 19 294 3.2 12.9 0.00 0.00 0.00 64 1017.7
20260506175842 19 288 4.8 12.9 0.00 0.00 0.00 64 1017.8
20260506175334 18 311 6.4 14.5 0.00 0.00 0.00 67 1017.8
20260506174828 18 258 4.8 14.5 0.00 0.00 0.00 67 1017.7
20260506173816 18 214 1.6 4.8 0.00 0.00 0.00 67 1017.7
20260506173309 18 234 3.2 6.4 0.00 0.00 0.00 66 1017.8
20260506172258 17 219 4.8 11.3 0.00 0.00 0.00 68 1017.8
20260506171752 18 242 3.2 11.3 0.00 0.00 0.00 69 1017.8
20260506171246 17 213 3.2 9.7 0.00 0.00 0.00 70 1017.8
20260506170740 17 212 4.8 11.3 0.00 0.00 0.00 71 1017.9
20260506170234 17 200 3.2 11.3 0.00 0.00 0.00 70 1018.0
20260506165728 17 205 3.2 11.3 0.00 0.00 0.00 73 1018.0
20260506164716 17 242 4.8 11.3 0.00 0.00 0.00 73 1018.0